TRA31G EHAM-LEGR

Flight info

Callsign TRA31G
Flight time N/A
Altitude 35000
Route WOODY N872 CIV DCT KOVIN DCT DUCRA DCT RESMI DCT DEKOD DCT DISAK DCT ARKIP DCT ARNAV DCT LMG DCT UVELI DCT OSMOB DCT ARVID DCT PPN DCT NOLSA DCT ALEPO DCT VASUM N10 CJN L27 BLN N865 VIBAS
Aircraft A21N/M-SDE3FGHIRWY/LB1

Departure

Time 2026-04-18 10:38
Airport Amsterdam Airport Schiphol (EHAM)

Arrival

Time N/A
Airport F.G.L. Airport Granada-Jaén Airport (LEGR)
Time Latitude Longitude Altitude Speed Heading
2026-04-18 10:22 52.30672 4.76600 -1 ft 0 kts 248°
2026-04-18 10:28 52.30674 4.76608 -1 ft 2 kts 248°
2026-04-18 10:28 52.30679 4.76629 -1 ft 2 kts 248°
2026-04-18 10:28 52.30684 4.76650 -1 ft 2 kts 248°
2026-04-18 10:29 52.30690 4.76673 -1 ft 2 kts 248°
2026-04-18 10:29 52.30695 4.76694 -1 ft 2 kts 248°
2026-04-18 10:29 52.30700 4.76715 -1 ft 0 kts 248°
2026-04-18 10:29 52.30705 4.76730 -1 ft 1 kts 224°
2026-04-18 10:30 52.30718 4.76738 -1 ft 2 kts 174°
2026-04-18 10:30 52.30732 4.76728 -1 ft 2 kts 128°
2026-04-18 10:30 52.30736 4.76712 -1 ft 0 kts 96°
2026-04-18 10:30 52.30736 4.76700 -1 ft 0 kts 94°
2026-04-18 10:34 52.30736 4.76705 -1 ft 1 kts 95°
2026-04-18 10:34 52.30734 4.76744 -1 ft 5 kts 96°
2026-04-18 10:34 52.30714 4.76809 -1 ft 8 kts 138°
2026-04-18 10:34 52.30670 4.76860 -1 ft 8 kts 136°
2026-04-18 10:35 52.30654 4.76947 -1 ft 9 kts 94°
2026-04-18 10:35 52.30650 4.77052 -1 ft 10 kts 92°
2026-04-18 10:35 52.30648 4.77164 -1 ft 11 kts 92°
2026-04-18 10:35 52.30644 4.77284 -1 ft 12 kts 94°
2026-04-18 10:36 52.30640 4.77413 -1 ft 12 kts 90°
2026-04-18 10:36 52.30602 4.77506 -1 ft 11 kts 156°
2026-04-18 10:36 52.30548 4.77552 -1 ft 10 kts 148°
2026-04-18 10:36 52.30498 4.77602 -1 ft 10 kts 149°
2026-04-18 10:37 52.30447 4.77651 -1 ft 10 kts 155°
2026-04-18 10:37 52.30412 4.77633 -1 ft 3 kts 229°
2026-04-18 10:37 52.30402 4.77610 -1 ft 0 kts 239°
2026-04-18 10:37 52.30398 4.77600 -1 ft 12 kts 239°
2026-04-18 10:38 52.30221 4.77130 -1 ft 88 kts 238°
2026-04-18 10:38 52.29123 4.74281 312 ft 179 kts 237°
2026-04-18 10:38 52.28285 4.72236 1238 ft 181 kts 239°
2026-04-18 10:39 52.27700 4.70701 2137 ft 174 kts 240°
2026-04-18 10:39 52.27010 4.69017 2665 ft 188 kts 229°
2026-04-18 10:39 52.25887 4.67871 3097 ft 209 kts 199°
2026-04-18 10:39 52.24417 4.67881 3473 ft 237 kts 166°
2026-04-18 10:40 52.23011 4.69128 4308 ft 241 kts 149°
2026-04-18 10:40 52.21710 4.70589 5203 ft 238 kts 150°
2026-04-18 10:40 52.20395 4.71937 5939 ft 240 kts 154°
2026-04-18 10:40 52.19000 4.73222 6664 ft 243 kts 156°
2026-04-18 10:41 52.17530 4.74373 7429 ft 243 kts 163°
2026-04-18 10:41 52.15970 4.75206 8090 ft 247 kts 169°
2026-04-18 10:41 52.14314 4.75869 8629 ft 259 kts 171°
2026-04-18 10:41 52.12563 4.76532 9165 ft 271 kts 171°
2026-04-18 10:42 52.10722 4.77231 9744 ft 281 kts 171°
2026-04-18 10:42 52.08863 4.77947 10524 ft 283 kts 171°
2026-04-18 10:42 52.07051 4.78644 11066 ft 294 kts 171°
2026-04-18 10:42 52.05010 4.79425 11436 ft 311 kts 171°
2026-04-18 10:43 52.02902 4.80235 11771 ft 329 kts 171°
2026-04-18 10:43 52.00704 4.80980 12081 ft 343 kts 177°
2026-04-18 10:43 51.98356 4.80862 12557 ft 348 kts 193°
2026-04-18 10:43 51.96123 4.79734 13281 ft 346 kts 206°
2026-04-18 10:44 51.93984 4.78082 14044 ft 347 kts 208°
2026-04-18 10:44 51.91820 4.76354 14725 ft 351 kts 208°
2026-04-18 10:44 51.89671 4.74651 15376 ft 355 kts 208°
2026-04-18 10:44 51.87533 4.72970 16018 ft 357 kts 208°